Delta Virtual Airport Information Service

San Juan Luis Munoz Marin International Airport

ICAO: TJSJ Country: Puerto Rico
Latitude: 18.4394 Longitude: -66.0018
Latest Arrival : DAC5827 (KDTW-TJSJ) Latest Departure : DAC9296 (TJSJ-KDTW)


WX CaptureLIVE
Data provided by noaa.gov | Fetched at 07:37:36

METAR : TJSJ 301256Z 12005KT 10SM FEW020 SCT028 SCT035 27/21 A3005

TAF : TJSJ 301140Z 3012/0112 VRB05KT P6SM FEW030 FM301400 07012KT P6SM FEW025 SCT040 FM302300 08005KT P6SM SKC


Runway Data for TJSJ
Data provided by openaviationdata.com

Runway ID Mag Var Hdg Length Elevation Surface ILS Freq ILS Id ILS Slope
8 -11 77° 10005 ft 9 ft Asphalt 110.3 ISJU 3
10 -11 101° 8013 ft 9 ft Concrete 109.7 ICLA 3
26 -11 257° 10005 ft 9 ft Asphalt -- -- --
28 -11 281° 8013 ft 9 ft Concrete -- -- --

San Juan Luis Munoz Marin International Airport, Puerto Rico
Use only for reference purposes



Not for navigational purposes.